Tracking 19149 objects as of 21-Apr-2018
HD Live streaming from Space Station
objects crossing your sky now

FENGYUN 1C DEB

Track FENGYUN 1C DEB now!
10-day predictions


NORAD ID: 29918
Int'l Code: 1999-025HQ
Perigee: 823.3 km
Apogee: 849.2 km
Inclination: 99.0 °
Period: 101.5 minutes
Semi major axis: 7207 km
RCS: 0.0927 m2 (small)
Launch date: May 10, 1999
Source: People's Republic of China (PRC)
Launch site: Taiyaun Space Center, China (TSC)

Note: This is SATELLITE DEBRIS
aabbcc
Your satellite tracking list
Your tracking list is empty




NASA's NSSDC Master Catalog

Two Line Element Set (TLE):
1 29918U 99025HQ  18111.57004339  .00000607  00000-0  31334-3 0  9997
2 29918  99.0223 112.3783 0017959  64.6011  53.0976 14.18878744581017
Source of the keplerian elements: AFSPC